"2009-09-17 00:00:00",1247328,4.97,91.7,2.519,0.256,17.78,107.8645,19.41,20.4,40.02,0,110.8,13.2,20.23,53.7
"2009-09-17 00:00:30",1247329,4.773,98.7,6.035,0.35,17.86,107.8701,19.43,20.4,39.96,0,110.8,13.2,20.25,60.7
"2009-09-17 00:01:00",1247330,5.024,102.2,8.07,0.139,17.8,107.8794,19.45,20.41,39.94,0,110.8,13.2,20.27,64.2
"2009-09-17 00:01:30",1247331,4.579,97.7,2.046,0.123,17.81,107.8898,19.48,20.42,39.79,0,110.8,13.21,20.30,59.7
"2009-09-17 00:02:00",1247332,5,96.1,2.895,0.254,17.83,107.894,19.49,20.43,39.72,0,110.8,13.21,20.31,58.1
"2009-09-17 00:02:30",1247333,4.715,97.4,2.79,0.234,17.78,107.8966,19.49,20.43,39.76,0,110.8,13.21,20.31,59.4
"2009-09-17 00:03:00",1247334,4.344,101.8,3.112,0.153,17.92,107.8974,19.5,20.44,39.83,0,110.8,13.21,20.32,63.8
"2009-09-17 00:03:30",1247335,5.118,96.5,5.629,0.224,17.84,107.8974,19.5,20.44,39.73,0,110.8,13.21,20.32,58.5
"2009-09-17 00:04:00",1247336,5.198,92.2,1.99,0.229,17.84,107.8974,19.5,20.45,39.51,0,110.8,13.21,20.32,54.2
"2009-09-17 00:04:30",1247337,5.434,95.4,1.884,0.245,17.92,107.8968,19.5,20.45,39.9,0,110.8,13.21,20.31,57.4
"2009-09-17 00:05:00",1247338,5.359,99,3.147,0.148,17.96,107.8949,19.49,20.46,40.28,0,110.8,13.21,20.31,61.0
"2009-09-17 00:05:30",1247339,5.921,106.5,4.237,0.401,18.03,107.8864,19.47,20.47,40.3,0,110.8,13.21,20.29,68.5
"2009-09-17 00:06:00",1247340,6.157,121,8.31,0.62,18.07,107.8808,19.45,20.46,40.37,0,110.8,13.21,20.27,83.0
"2009-09-17 00:06:30",1247341,6.503,100.1,2.382,0.272,17.96,107.8811,19.45,20.46,39.67,0,110.8,13.21,20.27,62.1
"2009-09-17 00:07:00",1247342,5.444,98.5,4.906,0.458,17.99,107.876,19.44,20.45,39.54,0,110.8,13.21,20.26,60.5
"2009-09-17 00:07:30",1247343,5.276,101.8,6.637,0.403,17.95,107.8727,19.43,20.45,39.6,0,110.8,13.21,20.25,63.8
"2009-09-17 00:08:00",1247344,5.222,108.2,1.312,0.123,17.86,107.867,19.42,20.45,40.07,0,110.8,13.21,20.24,70.2
"2009-09-17 00:08:30",1247345,4.939,105.4,4.767,0.235,17.92,107.8653,19.41,20.43,39.95,0,110.8,13.21,20.23,67.4
"2009-09-17 00:09:00",1247346,4.251,112.7,3.172,0.128,17.83,107.8636,19.41,20.44,40.21,0,110.8,13.21,20.23,74.7
"2009-09-17 00:09:30",1247347,4.626,111.3,4.066,0.403,17.91,107.8636,19.41,20.43,40.18,0,110.8,13.21,20.23,73.3
"2009-09-17 00:10:00",1247348,4.621,113.6,3.07,0.197,17.91,107.8636,19.41,20.43,40.4,0,110.8,13.21,20.23,75.6
"2009-09-17 00:10:30",1247349,4.779,112.7,5.085,0.222,17.9,107.8636,19.41,20.42,40.47,0,110.8,13.21,20.23,74.7
"2009-09-17 00:11:00",1247350,4.816,114.5,2.267,0.144,17.88,107.8636,19.41,20.41,39.76,0,110.8,13.21,20.23,76.5
"2009-09-17 00:11:30",1247351,4.802,116.2,1.253,0.109,18.01,107.8628,19.41,20.43,39.86,0,110.8,13.21,20.23,78.2
"2009-09-17 00:12:00",1247352,4.642,117.4,4.315,0.204,17.99,107.8569,19.39,20.41,40.36,0,110.8,13.21,20.21,79.4
"2009-09-17 00:12:30",1247353,4.853,120.4,3.174,0.169,18.07,107.8516,19.38,20.42,40.26,0,110.8,13.21,20.20,82.4
"2009-09-17 00:13:00",1247354,5.259,118.6,1.471,0.109,18.04,107.8414,19.35,20.42,39.65,0,110.8,13.21,20.17,80.6
"2009-09-17 00:13:30",1247355,4.853,114.1,2.79,0.125,18.11,107.8305,19.32,20.41,39.65,0,110.8,13.21,20.14,76.1
"2009-09-17 00:14:00",1247356,4.831,115,1.466,0.105,18.23,107.8299,19.32,20.4,39.54,0,110.8,13.2,20.14,77.0
"2009-09-17 00:14:30",1247357,5.123,116.3,1.309,0.139,18.28,107.8299,19.32,20.38,39.87,0,110.8,13.2,20.14,78.3
"2009-09-17 00:15:00",1247358,5.07,116.7,1.889,0.055,18.25,107.824,19.31,20.36,40.15,0,110.8,13.2,20.13,78.7
"2009-09-17 00:15:30",1247359,4.845,113.8,2.495,0.156,18.3,107.8068,19.26,20.36,40.08,0,110.8,13.2,20.08,75.8
"2009-09-17 00:16:00",1247360,4.648,110.9,1.6,0.066,18.33,107.7961,19.24,20.35,39.96,0,110.8,13.2,20.06,72.9
"2009-09-17 00:16:30",1247361,4.442,115.7,2.482,0.095,18.24,107.7961,19.24,20.32,39.79,0,110.8,13.2,20.06,77.7
"2009-09-17 00:17:00",1247362,3.965,118.6,2.756,0.193,18.27,107.7959,19.24,20.31,39.95,0,110.8,13.2,20.06,80.6
"2009-09-17 00:17:30",1247363,3.983,118.7,2.487,0.179,18.27,107.7936,19.23,20.31,39.97,0,110.8,13.21,20.05,80.7
"2009-09-17 00:18:00",1247364,4.319,118.5,2.438,0.072,18.22,107.7779,19.19,20.3,40.28,0,110.8,13.21,20.01,80.5
"2009-09-17 00:18:30",1247365,4.711,116,4.261,0.199,18.14,107.7666,19.16,20.28,40.58,0,110.8,13.21,19.98,78.0
"2009-09-17 00:19:00",1247366,5.09,115.2,1.956,0.183,18.2,107.7657,19.16,20.27,40.34,0,110.8,13.21,19.98,77.2
"2009-09-17 00:19:30",1247367,4.798,113.6,2.307,0.074,18.08,107.767,19.16,20.26,40.01,0,110.8,13.21,19.98,75.6
"2009-09-17 00:20:00",1247368,4.739,110.3,1.477,0.141,18.21,107.7685,19.17,20.25,39.74,0,110.8,13.21,19.98,72.3
"2009-09-17 00:20:30",1247369,4.516,109.1,1.266,0.105,18.06,107.7694,19.17,20.24,39.87,0,110.8,13.21,19.99,71.1
"2009-09-17 00:21:00",1247370,4.784,109.5,1.361,0.178,18.12,107.7676,19.16,20.22,40,0,110.8,13.21,19.98,71.5
"2009-09-17 00:21:30",1247371,4.781,109.2,1.987,0.133,18.1,107.762,19.15,20.21,41.07,0,110.8,13.21,19.97,71.2
"2009-09-17 00:22:00",1247372,4.569,110,0.995,0.079,18.14,107.7554,19.13,20.21,41.32,0,110.8,13.21,19.95,72.0
"2009-09-17 00:22:30",1247373,4.464,109.6,1.322,0.063,18.03,107.7519,19.12,20.2,41.35,0,110.8,13.22,19.94,71.6
"2009-09-17 00:23:00",1247374,4.39,106.8,0.538,0.122,17.91,107.7514,19.12,20.18,41.31,0,110.8,13.22,19.94,68.8
"2009-09-17 00:23:30",1247375,4.292,107.8,0.662,0.064,17.84,107.7498,19.12,20.17,41.41,0,110.8,13.22,19.94,69.8
"2009-09-17 00:24:00",1247376,4.187,107.4,0.943,0.03,17.93,107.7514,19.12,20.18,41.35,0,110.8,13.22,19.94,69.4
"2009-09-17 00:24:30",1247377,4.179,107.4,1.124,0.059,17.95,107.7538,19.13,20.17,41.49,0,110.8,13.22,19.95,69.4
"2009-09-17 00:25:00",1247378,4.297,106.5,1.175,0.111,17.94,107.7565,19.14,20.17,41.46,0,110.8,13.22,19.95,68.5
"2009-09-17 00:25:30",1247379,4.174,106.9,0.975,0.038,17.99,107.7565,19.14,20.17,41.52,0,110.8,13.22,19.95,68.9
"2009-09-17 00:26:00",1247380,4.128,108.8,1.46,0.086,17.97,107.7571,19.14,20.16,41.53,0,110.8,13.22,19.96,70.8
"2009-09-17 00:26:30",1247381,3.944,113.4,1.924,0.067,18.06,107.7587,19.14,20.15,41.39,0,110.8,13.22,19.96,75.4
"2009-09-17 00:27:00",1247382,3.933,116.8,2.02,0.128,18.03,107.7602,19.14,20.14,41.32,0,110.8,13.22,19.96,78.8
"2009-09-17 00:27:30",1247383,4.001,121.3,1.52,0.101,18.07,107.762,19.15,20.14,41.14,0,110.8,13.22,19.97,83.3
"2009-09-17 00:28:00",1247384,3.971,123.8,2.109,0.142,18.08,107.7635,19.15,20.14,41.99,0,110.8,13.22,19.97,85.8
"2009-09-17 00:28:30",1247385,3.998,128.8,1.358,0.122,18.06,107.7644,19.16,20.15,42.27,0,110.8,13.22,19.97,90.8
"2009-09-17 00:29:00",1247386,3.905,126.5,2.049,0.165,18.12,107.7644,19.16,20.14,41.89,0,110.8,13.22,19.97,88.5
"2009-09-17 00:29:30",1247387,3.955,126.4,3.085,0.122,18.19,107.7635,19.15,20.14,41.54,0,110.8,13.22,19.97,88.4
"2009-09-17 00:30:00",1247388,4.145,129.3,1.909,0.141,18.18,107.763,19.15,20.13,41.49,0,110.8,13.22,19.97,91.3
"2009-09-17 00:30:30",1247389,3.896,129.5,2.765,0.163,18.25,107.7588,19.14,20.13,41.67,0,110.8,13.22,19.96,91.5
"2009-09-17 00:31:00",1247390,3.851,131.9,2.234,0.084,18.22,107.7543,19.13,20.14,41.77,0,110.8,13.22,19.95,93.9
"2009-09-17 00:31:30",1247391,3.527,134.1,1.44,0.222,18.17,107.7459,19.11,20.12,41.69,0,110.8,13.22,19.93,96.1
"2009-09-17 00:32:00",1247392,3.478,135.7,1.147,0.182,18.21,107.738,19.09,20.1,42.14,0,110.8,13.22,19.91,97.7
"2009-09-17 00:32:30",1247393,3.044,132.2,3.898,0.169,18.25,107.7327,19.07,20.11,41.88,0,110.8,13.22,19.89,94.2
"2009-09-17 00:33:00",1247394,3.138,132.5,2.931,0.214,18.25,107.7313,19.07,20.1,42.14,0,110.8,13.22,19.89,94.5
"2009-09-17 00:33:30",1247395,3.193,123.6,4.692,0.131,18.21,107.7313,19.07,20.09,42.35,0,110.8,13.22,19.89,85.6
"2009-09-17 00:34:00",1247396,3.056,121.9,1.969,0.145,18.24,107.7313,19.07,20.08,42.14,0,110.8,13.22,19.89,83.9
"2009-09-17 00:34:30",1247397,2.941,127.2,2.813,0.131,18.14,107.7313,19.07,20.08,42.4,0,110.8,13.22,19.89,89.2
"2009-09-17 00:35:00",1247398,2.862,127.9,2.422,0.135,18.12,107.7313,19.07,20.07,42.43,0,110.8,13.22,19.89,89.9
"2009-09-17 00:35:30",1247399,2.617,126.7,3.067,0.107,18.21,107.7313,19.07,20.07,42.54,0,110.8,13.22,19.89,88.7
"2009-09-17 00:36:00",1247400,2.93,124.2,2.592,0.166,18.22,107.7313,19.07,20.07,42.51,0,110.8,13.23,19.89,86.2
"2009-09-17 00:36:30",1247401,3.217,125.4,2.346,0.148,18.21,107.7313,19.07,20.06,42.49,0,110.8,13.23,19.89,87.4
"2009-09-17 00:37:00",1247402,2.762,123.8,2.785,0.202,18.26,107.7313,19.07,20.07,42.46,0,110.8,13.23,19.89,85.8
"2009-09-17 00:37:30",1247403,2.546,128,3.024,0.066,18.29,107.7313,19.07,20.08,42.25,0,110.8,13.23,19.89,90.0
"2009-09-17 00:38:00",1247404,2.678,120,4.406,0.12,18.21,107.7313,19.07,20.07,42.38,0,110.8,13.23,19.89,82.0
"2009-09-17 00:38:30",1247405,2.9,117.4,3.816,0.144,18.27,107.731,19.07,20.06,42.42,0,110.8,13.23,19.89,79.4
"2009-09-17 00:39:00",1247406,3.132,112.1,1.946,0.257,18.3,107.7273,19.06,20.07,41.99,0,110.8,13.23,19.88,74.1
"2009-09-17 00:39:30",1247407,2.773,111.2,2.315,0.069,18.36,107.7228,19.05,20.05,41.81,0,110.8,13.23,19.87,73.2
"2009-09-17 00:40:00",1247408,2.849,115.7,1.596,0.143,18.28,107.7223,19.05,20.05,42.05,0,110.8,13.23,19.87,77.7
"2009-09-17 00:40:30",1247409,3.151,114.6,2.808,0.11,18.24,107.7161,19.03,20.06,42.15,0,110.8,13.23,19.85,76.6
"2009-09-17 00:41:00",1247410,2.735,115.1,5.879,0.177,18.31,107.7042,19,20.04,42.21,0,110.8,13.23,19.82,77.1
"2009-09-17 00:41:30",1247411,2.578,118,1.208,0.068,18.24,107.6983,18.99,20.04,42.36,0,110.8,13.23,19.80,80.0
"2009-09-17 00:42:00",1247412,2.507,122.7,2.405,0.1,18.21,107.6975,18.98,20.04,42.37,0,110.8,13.23,19.80,84.7
"2009-09-17 00:42:30",1247413,2.6,124.3,2.879,0.097,18.38,107.6975,18.98,20.03,42.18,0,110.8,13.23,19.80,86.3
"2009-09-17 00:43:00",1247414,2.688,125.1,4.037,0.103,18.31,107.6975,18.98,20.04,41.92,0,110.8,13.23,19.80,87.1
"2009-09-17 00:43:30",1247415,2.503,116.9,4.013,0.126,18.29,107.6975,18.98,20.02,41.93,0,110.8,13.23,19.80,78.9
"2009-09-17 00:44:00",1247416,2.772,114.3,2.158,0.062,18.41,107.6975,18.98,20.02,42.08,0,110.8,13.23,19.80,76.3
"2009-09-17 00:44:30",1247417,2.692,110.9,1.567,0.085,18.4,107.6975,18.98,20.02,42.2,0,110.8,13.23,19.80,72.9
"2009-09-17 00:45:00",1247418,2.672,115.4,1.841,0.16,18.37,107.6944,18.98,20.01,42.3,0,110.8,13.23,19.79,77.4
"2009-09-17 00:45:30",1247419,3.015,112.2,2.522,0.1,18.4,107.6809,18.94,20,42.32,0,110.8,13.23,19.76,74.2
"2009-09-17 00:46:00",1247420,3.25,111.2,1.291,0.082,18.42,107.6722,18.92,20,42.12,0,110.8,13.23,19.74,73.2
"2009-09-17 00:46:30",1247421,3.265,109.1,2.383,0.089,18.47,107.666,18.9,19.99,42.07,0,110.8,13.23,19.72,71.1
"2009-09-17 00:47:00",1247422,3.203,110.6,1.377,0.07,18.48,107.6637,18.9,19.99,42.07,0,110.8,13.23,19.71,72.6
"2009-09-17 00:47:30",1247423,3.212,108.9,1.529,0.059,18.54,107.6637,18.9,19.98,42.17,0,110.8,13.23,19.71,70.9
"2009-09-17 00:48:00",1247424,3.676,106.2,1.925,0.206,18.48,107.6637,18.9,19.96,42.23,0,110.8,13.23,19.71,68.2
"2009-09-17 00:48:30",1247425,3.824,104,2.279,0.13,18.48,107.664,18.9,19.96,42.35,0,110.8,13.23,19.72,66.0
"2009-09-17 00:49:00",1247426,3.795,96.4,2.429,0.062,18.45,107.6637,18.9,19.96,42.39,0,110.8,13.23,19.71,58.4
"2009-09-17 00:49:30",1247427,3.809,96,1.529,0.118,18.44,107.6635,18.9,19.95,42.41,0,110.8,13.23,19.71,58.0
"2009-09-17 00:50:00",1247428,3.551,92.7,3.115,0.332,18.45,107.6418,18.84,19.93,42.68,0,110.8,13.23,19.66,54.7
"2009-09-17 00:50:30",1247429,4.184,86,5.258,0.36,18.29,107.6321,18.82,19.91,44.33,0,110.8,13.23,19.63,48.0
"2009-09-17 00:51:00",1247430,4.937,70.73,4.756,0.248,18.33,107.6327,18.82,19.89,44.7,0,110.8,13.23,19.64,32.7
"2009-09-17 00:51:30",1247431,4.933,63.11,3.742,0.194,18.29,107.6333,18.82,19.87,45.04,0,110.8,13.23,19.64,25.1
"2009-09-17 00:52:00",1247432,4.265,59.92,2.351,0.184,18.33,107.6355,18.82,19.87,44.88,0,110.8,13.23,19.64,21.9
"2009-09-17 00:52:30",1247433,3.713,66.99,2.282,0.231,18.36,107.6339,18.82,19.85,44.99,0,110.7,13.23,19.64,29.0
"2009-09-17 00:53:00",1247434,3.258,67.7,1.603,0.153,18.28,107.6235,18.79,19.85,45.29,0,110.7,13.24,19.61,29.7
"2009-09-17 00:53:30",1247435,3.129,66.14,1.727,0.151,18.32,107.611,18.76,19.84,45.52,0,110.7,13.24,19.58,28.1
"2009-09-17 00:54:00",1247436,3.046,64.09,1.635,0.109,18.42,107.6101,18.76,19.82,45.78,0,110.8,13.24,19.58,26.1
"2009-09-17 00:54:30",1247437,3.153,70.75,1.268,0.095,18.29,107.6117,18.76,19.8,45.83,0,110.7,13.24,19.58,32.8
"2009-09-17 00:55:00",1247438,3.171,70.71,2.864,0.143,18.35,107.6135,18.77,19.8,45.86,0,110.7,13.24,19.59,32.7
"2009-09-17 00:55:30",1247439,3.143,71.56,1.3,0.103,18.35,107.6009,18.74,19.77,45.9,0,110.7,13.24,19.55,33.6
"2009-09-17 00:56:00",1247440,3.273,65.93,1.849,0.059,18.35,107.5854,18.7,19.77,45.96,0,110.7,13.24,19.51,27.9
"2009-09-17 00:56:30",1247441,3.408,65.3,2.391,0.148,18.36,107.587,18.7,19.77,46.16,0,110.7,13.24,19.52,27.3
"2009-09-17 00:57:00",1247442,3.558,64.88,2.485,0.107,18.45,107.5912,18.71,19.76,46.5,0,110.7,13.24,19.53,26.9
"2009-09-17 00:57:30",1247443,3.503,59.01,1.644,0.165,18.25,107.594,18.72,19.76,46.95,0,110.7,13.24,19.54,21.0
"2009-09-17 00:58:00",1247444,4.051,56.32,2.986,0.155,18.28,107.5826,18.69,19.73,47.33,0,110.7,13.24,19.51,18.3
"2009-09-17 00:58:30",1247445,3.937,62.08,3.648,0.125,18.29,107.5626,18.64,19.72,47.37,0,110.7,13.24,19.45,24.1
"2009-09-17 00:59:00",1247446,4.081,58.56,1.573,0.074,18.28,107.5641,18.64,19.7,47.29,0,110.7,13.24,19.46,20.6
"2009-09-17 00:59:30",1247447,4.168,63.5,1.321,0.08,18.31,107.5591,18.63,19.69,47.37,0,110.7,13.25,19.45,25.5
"2009-09-17 01:00:00",1247448,3.942,69.75,2.225,0.143,18.34,107.5371,18.57,19.66,47.23,0,110.7,13.25,19.39,31.8
"2009-09-17 01:00:30",1247449,3.985,74,1.625,0.114,18.4,107.5312,18.56,19.65,46.95,0,110.7,13.25,19.37,36.0
"2009-09-17 01:01:00",1247450,3.65,75.28,1.577,0.062,18.5,107.5312,18.56,19.62,46.6,0,110.7,13.25,19.37,37.3
"2009-09-17 01:01:30",1247451,3.761,74.43,0.727,0.054,18.34,107.5293,18.55,19.59,46.67,0,110.7,13.25,19.37,36.4
"2009-09-17 01:02:00",1247452,3.606,74.99,0.591,0.083,18.55,107.5079,18.5,19.59,46.92,0,110.7,13.25,19.31,37.0
"2009-09-17 01:02:30",1247453,3.616,75.62,1.224,0.121,18.51,107.4975,18.47,19.56,47.04,0,110.7,13.25,19.29,37.6
"2009-09-17 01:03:00",1247454,3.679,74.6,1.768,0.118,18.45,107.4975,18.47,19.54,47.06,0,110.7,13.25,19.29,36.6
"2009-09-17 01:03:30",1247455,3.774,69.97,1.492,0.115,18.33,107.4975,18.47,19.54,47.14,0,110.7,13.25,19.29,32.0
"2009-09-17 01:04:00",1247456,3.881,73.01,1.122,0.063,18.25,107.4932,18.46,19.52,47.28,0,110.7,13.25,19.28,35.0
"2009-09-17 01:04:30",1247457,3.954,71.82,2.647,0.081,18.42,107.4783,18.42,19.5,47.32,0,110.7,13.25,19.24,33.8
"2009-09-17 01:05:00",1247458,4.013,67.85,0.876,0.073,18.49,107.4645,18.39,19.5,47.4,0,110.7,13.25,19.20,29.8
"2009-09-17 01:05:30",1247459,3.932,64.77,0.668,0.059,18.16,107.4637,18.38,19.47,47.63,0,110.7,13.25,19.20,26.8
"2009-09-17 01:06:00",1247460,4.11,65.09,1.42,0.092,18.12,107.4637,18.38,19.46,47.71,0,110.7,13.25,19.20,27.1
"2009-09-17 01:06:30",1247461,4.065,67.09,1.048,0.1,18.35,107.4623,18.38,19.44,47.73,0,110.7,13.25,19.20,29.1
"2009-09-17 01:07:00",1247462,4.133,70.69,2.205,0.077,18.36,107.4485,18.35,19.43,47.7,0,110.7,13.25,19.16,32.7
"2009-09-17 01:07:30",1247463,4.058,73.19,1.018,0.048,18.27,107.4308,18.3,19.41,47.68,0,110.7,13.25,19.12,35.2
"2009-09-17 01:08:00",1247464,4.093,74.19,0.696,0.062,18.33,107.4299,18.3,19.39,47.66,0,110.7,13.25,19.11,36.2
"2009-09-17 01:08:30",1247465,3.988,76.8,5.5,0.114,18.46,107.4299,18.3,19.38,47.57,0,110.7,13.25,19.11,38.8
"2009-09-17 01:09:00",1247466,4.08,75.18,4.984,0.193,18.43,107.4299,18.3,19.38,47.51,0,110.7,13.25,19.11,37.2
"2009-09-17 01:09:30",1247467,4.31,69.09,2.986,0.117,18.31,107.4229,18.28,19.35,47.6,0,110.7,13.25,19.10,31.1
"2009-09-17 01:10:00",1247468,4.683,64.49,1.096,0.088,18.41,107.4106,18.25,19.34,47.57,0,110.7,13.26,19.06,26.5
"2009-09-17 01:10:30",1247469,4.614,66.52,2.666,0.076,18.4,107.3973,18.21,19.32,47.5,0,110.7,13.26,19.03,28.5
"2009-09-17 01:11:00",1247470,4.558,71.62,4.005,0.141,18.39,107.3986,18.22,19.32,47.61,0,110.7,13.26,19.03,33.6
"2009-09-17 01:11:30",1247471,4.709,70.8,4.01,0.136,18.45,107.4001,18.22,19.3,47.58,0,110.7,13.26,19.04,32.8
"2009-09-17 01:12:00",1247472,4.843,66.45,1.041,0.15,18.38,107.4028,18.23,19.3,47.61,0,110.7,13.26,19.04,28.4
"2009-09-17 01:12:30",1247473,5.119,69.25,1.893,0.106,18.44,107.4061,18.24,19.29,47.62,0,110.7,13.26,19.05,31.2
"2009-09-17 01:13:00",1247474,4.795,72.93,1.908,0.26,18.48,107.4014,18.22,19.27,47.64,0,110.7,13.26,19.04,34.9
"2009-09-17 01:13:30",1247475,4.537,68.47,1.506,0.108,18.36,107.3967,18.21,19.26,47.65,0,110.7,13.26,19.03,30.5
"2009-09-17 01:14:00",1247476,4.491,72.53,1.737,0.132,18.51,107.3871,18.19,19.24,47.67,0,110.7,13.26,19.00,34.5
"2009-09-17 01:14:30",1247477,4.638,73.08,2.857,0.058,18.56,107.3869,18.19,19.24,47.74,0,110.7,13.26,19.00,35.1
"2009-09-17 01:15:00",1247478,4.42,77.52,1.805,0.188,18.51,107.389,18.19,19.22,47.66,0,110.7,13.26,19.01,39.5
"2009-09-17 01:15:30",1247479,4.757,69.89,2.795,0.189,18.39,107.3896,18.19,19.22,47.67,0,110.7,13.26,19.01,31.9
"2009-09-17 01:16:00",1247480,4.588,77.84,6.706,0.17,18.42,107.3899,18.19,19.21,47.66,0,110.7,13.26,19.01,39.8
"2009-09-17 01:16:30",1247481,4.606,83.4,4.396,0.295,18.41,107.392,18.2,19.2,47.69,0,110.7,13.26,19.02,45.4
"2009-09-17 01:17:00",1247482,4.418,71.19,4.893,0.274,18.41,107.3899,18.19,19.2,47.87,0,110.7,13.26,19.01,33.2
"2009-09-17 01:17:30",1247483,4.594,76.18,5.502,0.256,18.42,107.383,18.18,19.18,47.85,0,110.7,13.26,18.99,38.2
"2009-09-17 01:18:00",1247484,4.857,77.21,2.503,0.142,18.53,107.3758,18.16,19.17,47.95,0,110.6,13.26,18.97,39.2
"2009-09-17 01:18:30",1247485,4.734,77.66,0.956,0.056,18.53,107.3688,18.14,19.18,48.27,0,110.7,13.26,18.96,39.7
"2009-09-17 01:19:00",1247486,4.677,78.27,0.893,0.067,18.55,107.3651,18.13,19.17,48.45,0,110.7,13.26,18.95,40.3
"2009-09-17 01:19:30",1247487,4.544,75.85,1.186,0.069,18.33,107.3649,18.13,19.15,48.5,0,110.6,13.26,18.95,37.8
"2009-09-17 01:20:00",1247488,4.406,69.32,2.778,0.063,18.32,107.3649,18.13,19.15,48.34,0,110.6,13.26,18.95,31.3
"2009-09-17 01:20:30",1247489,4.49,70.05,1.765,0.056,18.38,107.3649,18.13,19.15,48.17,0,110.6,13.26,18.95,32.1
"2009-09-17 01:21:00",1247490,4.661,72.48,1.207,0.136,18.39,107.3649,18.13,19.13,48.11,0,110.6,13.26,18.95,34.5
"2009-09-17 01:21:30",1247491,4.822,74.15,0.717,0.07,18.37,107.3649,18.13,19.13,48.27,0,110.6,13.26,18.95,36.2
"2009-09-17 01:22:00",1247492,4.754,73.97,1.55,0.075,18.3,107.3649,18.13,19.13,48.42,0,110.6,13.26,18.95,36.0
"2009-09-17 01:22:30",1247493,4.805,73.31,1.588,0.197,18.4,107.3649,18.13,19.13,48.42,0,110.6,13.26,18.95,35.3
"2009-09-17 01:23:00",1247494,5.24,72.64,1.232,0.069,18.42,107.3649,18.13,19.12,48.52,0,110.6,13.26,18.95,34.6
"2009-09-17 01:23:30",1247495,5.458,76.09,2.012,0.15,18.54,107.3649,18.13,19.12,48.4,0,110.6,13.26,18.95,38.1
"2009-09-17 01:24:00",1247496,5.4,82.1,0.938,0.139,18.49,107.3629,18.13,19.12,48.41,0,110.6,13.26,18.94,44.1
"2009-09-17 01:24:30",1247497,5.315,78.71,1.758,0.118,18.44,107.3508,18.09,19.1,48.46,0,110.6,13.26,18.91,40.7
"2009-09-17 01:25:00",1247498,4.957,75.95,1.899,0.109,18.45,107.3407,18.07,19.09,48.52,0,110.6,13.26,18.88,37.9
"2009-09-17 01:25:30",1247499,4.939,73.14,1.483,0.052,18.47,107.3359,18.06,19.09,48.58,0,110.6,13.26,18.87,35.1
"2009-09-17 01:26:00",1247500,4.945,73.81,1.319,0.082,18.46,107.3328,18.05,19.08,48.79,0,110.6,13.26,18.86,35.8
"2009-09-17 01:26:30",1247501,5.106,74.19,1.397,0.104,18.38,107.3311,18.04,19.09,48.82,0,110.6,13.27,18.86,36.2
"2009-09-17 01:27:00",1247502,5.106,72.31,0.693,0.091,18.44,107.3311,18.04,19.08,48.85,0,110.6,13.27,18.86,34.3
"2009-09-17 01:27:30",1247503,4.985,72.23,1.502,0.147,18.43,107.3311,18.04,19.08,48.8,0,110.6,13.27,18.86,34.2
"2009-09-17 01:28:00",1247504,5.15,70.56,1.057,0.132,18.26,107.3311,18.04,19.07,48.74,0,110.6,13.27,18.86,32.6
"2009-09-17 01:28:30",1247505,5.47,71.76,1.997,0.101,18.46,107.3311,18.04,19.07,48.96,0,110.6,13.27,18.86,33.8
"2009-09-17 01:29:00",1247506,5.814,70.7,1.305,0.196,18.41,107.3311,18.04,19.06,49.12,0,110.6,13.27,18.86,32.7
"2009-09-17 01:29:30",1247507,5.752,79.56,5.32,0.412,18.53,107.3311,18.04,19.05,48.57,0,110.6,13.27,18.86,41.6
"2009-09-17 01:30:00",1247508,5.649,76.08,2.214,0.286,18.51,107.3305,18.04,19.06,48.44,0,110.6,13.27,18.86,38.1
"2009-09-17 01:30:30",1247509,5.855,73.4,0.572,0.08,18.29,107.3283,18.04,19.05,49.13,0,110.6,13.27,18.85,35.4
"2009-09-17 01:31:00",1247510,5.538,73.52,1.35,0.129,18.44,107.3218,18.02,19.04,49.11,0,110.6,13.27,18.84,35.5
"2009-09-17 01:31:30",1247511,5.741,71.27,1.387,0.097,18.34,107.317,18.01,19.04,49.24,0,110.6,13.27,18.82,33.3
"2009-09-17 01:32:00",1247512,6.188,71.49,0.806,0.083,18.46,107.3097,17.99,19.02,49.38,0,110.6,13.27,18.80,33.5
"2009-09-17 01:32:30",1247513,6.156,71.02,0.933,0.054,18.5,107.3043,17.98,19.03,49.53,0,110.6,13.27,18.79,33.0
"2009-09-17 01:33:00",1247514,6.058,69.07,0.835,0.072,18.39,107.2981,17.96,19.02,49.59,0,110.6,13.27,18.77,31.1
"2009-09-17 01:33:30",1247515,6.024,70.48,1.093,0.081,18.38,107.2976,17.96,19.03,49.57,0,110.6,13.27,18.77,32.5
"2009-09-17 01:34:00",1247516,6.178,72.95,0.852,0.041,18.42,107.2973,17.96,19.02,49.57,0,110.6,13.27,18.77,34.9
"2009-09-17 01:34:30",1247517,6.154,75.19,0.682,0.064,18.6,107.2973,17.96,19.02,49.6,0,110.6,13.27,18.77,37.2
"2009-09-17 01:35:00",1247518,5.847,76.59,2.202,0.211,18.53,107.2976,17.96,18.99,49.56,0,110.6,13.27,18.77,38.6
"2009-09-17 01:35:30",1247519,5.483,80.5,5.41,0.433,18.53,107.2979,17.96,19.01,48.84,0,110.6,13.27,18.77,42.5
"2009-09-17 01:36:00",1247520,5.522,75.33,1.462,0.246,18.44,107.2982,17.96,19.01,49.2,0,110.6,13.27,18.77,37.3
"2009-09-17 01:36:30",1247521,5.541,75.09,0.996,0.086,18.5,107.2985,17.96,19,49.71,0,110.6,13.27,18.78,37.1
"2009-09-17 01:37:00",1247522,5.431,72.61,1.269,0.193,18.36,107.2991,17.96,19,49.83,0,110.6,13.27,18.78,34.6
"2009-09-17 01:37:30",1247523,5.946,73.29,0.982,0.163,18.34,107.3027,17.97,19,49.85,0,110.6,13.27,18.79,35.3
"2009-09-17 01:38:00",1247524,6.172,75.35,1.274,0.109,18.46,107.3048,17.98,18.99,49.89,0,110.6,13.27,18.79,37.3
"2009-09-17 01:38:30",1247525,6.158,74.68,0.869,0.066,18.46,107.3079,17.98,18.99,49.99,0,110.6,13.27,18.80,36.7
"2009-09-17 01:39:00",1247526,6.151,74.08,1.005,0.102,18.43,107.3118,17.99,18.99,50.07,0,110.6,13.27,18.81,36.1
"2009-09-17 01:39:30",1247527,6.448,76.45,1.214,0.09,18.41,107.3106,17.99,18.98,49.97,0,110.6,13.27,18.81,38.4
"2009-09-17 01:40:00",1247528,6.262,76.76,0.711,0.065,18.52,107.3152,18,18.98,49.81,0,110.6,13.27,18.82,38.8
"2009-09-17 01:40:30",1247529,6.405,75.17,0.612,0.062,18.38,107.3126,18,18.98,49.78,0,110.6,13.27,18.81,37.2
"2009-09-17 01:41:00",1247530,6.308,75.44,0.775,0.049,18.47,107.3092,17.99,18.98,49.77,0,110.6,13.27,18.80,37.4
"2009-09-17 01:41:30",1247531,6.648,75.99,0.93,0.133,18.5,107.305,17.98,18.98,49.81,0,110.6,13.27,18.79,38.0
"2009-09-17 01:42:00",1247532,6.865,78.16,1.058,0.074,18.58,107.2947,17.95,18.97,49.79,0,110.6,13.27,18.77,40.2
"2009-09-17 01:42:30",1247533,6.681,79.09,0.867,0.089,18.5,107.2914,17.94,18.97,49.86,0,110.6,13.27,18.76,41.1
"2009-09-17 01:43:00",1247534,6.58,78.35,0.726,0.1,18.42,107.2915,17.94,18.95,49.78,0,110.6,13.27,18.76,40.3
"2009-09-17 01:43:30",1247535,6.502,79.33,0.931,0.167,18.43,107.2916,17.94,18.96,49.62,0,110.6,13.27,18.76,41.3
"2009-09-17 01:44:00",1247536,6.453,81.4,0.596,0.18,18.55,107.2949,17.95,18.95,49.7,0,110.6,13.28,18.77,43.4
"2009-09-17 01:44:30",1247537,6.261,78.55,2.639,0.265,18.41,107.2943,17.95,18.95,49.62,0,110.6,13.28,18.76,40.6
"2009-09-17 01:45:00",1247538,6.554,74.2,1.09,0.158,18.35,107.2958,17.95,18.94,49.6,0,110.6,13.28,18.77,36.2
"2009-09-17 01:45:30",1247539,6.677,73.57,1.23,0.149,18.4,107.2973,17.96,18.95,49.55,0,110.6,13.28,18.77,35.6
"2009-09-17 01:46:00",1247540,6.737,73.99,1.106,0.137,18.4,107.2982,17.96,18.94,49.63,0,110.6,13.28,18.77,36.0
"2009-09-17 01:46:30",1247541,6.65,73.19,1.287,0.121,18.36,107.2982,17.96,18.95,49.8,0,110.6,13.28,18.77,35.2
"2009-09-17 01:47:00",1247542,6.647,70.82,2.176,0.18,18.28,107.2998,17.96,18.94,49.84,0,110.6,13.28,18.78,32.8
"2009-09-17 01:47:30",1247543,6.996,74.56,1.557,0.177,18.33,107.2998,17.96,18.95,49.83,0,110.6,13.28,18.78,36.6